Location: Innerarity Island Observatory
(30.3139°N, 87.4867°W)
Time: 16:02:20
(UTC-05:00)

Amateur Radio Satellites - All Passes

Search period start: 01 September 2014 15:32
Search period end: 02 September 2014 15:32
Location: Innerarity Island Observatory, 30.3139°N, 87.4867°W

Satellite Date Start Highest point End Downlink Frequencies (MHz)
Time Altitude Azimuth
UOSAT-12 01 Sep 15:40:50 15:44:19 21° 251° (WSW) 15:47:45 437.025 FM, 437.400 FM
ITAMSAT 1 01 Sep 15:43:42 15:46:10 13° 266° (W) 15:48:38 435.822 SSB
PANSAT 01 Sep 15:52:51 15:55:46 20° 202° (SSW) 15:58:40 not established
TMSAT-1 01 Sep 16:00:23 16:05:01 31° 262° (W) 16:09:41 436.925 FM
RS-15 01 Sep 16:03:43 16:14:00 40° 53° (NE) 16:24:35 29.354 - 29.394 USB, Beacon 29.352 USB
OPAL 01 Sep 16:07:13 16:09:15 12° 95° (E) 16:11:17 ?
ISS 01 Sep 16:07:23 16:08:43 12° 34° (NNE) 16:10:02 145.800 FM
Uosat F 01 Sep 16:08:50 16:13:41 52° 74° (ENE) 16:18:32 435.120 FM
Sapphire 01 Sep 16:15:32 16:20:54 75° 112° (ESE) 16:26:18 437.095 MHz 1200 baud AX-25 AFSK
AO-7 01 Sep 16:28:25 16:36:47 89° 253° (WSW) 16:45:09 29.400 - 29.500 MHz
JAS-1B 01 Sep 16:37:32 16:41:40 13° 268° (W) 16:45:43 435.800 - 435.900 CW/SSB
JAS-2 01 Sep 16:38:19 16:39:06 10° 66° (ENE) 16:39:53 435.800 - 435.900 CW/SSB, 435.910 FM
PCSat 01 Sep 16:44:56 16:50:11 53° 297° (WNW) 16:55:29 145.825 MHz
Hamsat 01 Sep 17:35:01 17:38:53 33° 73° (ENE) 17:42:47 145.90 MHz
ISS 01 Sep 17:42:25 17:45:42 60° 228° (SW) 17:48:59 145.800 FM
OPAL 01 Sep 17:43:16 17:48:24 59° 288° (WNW) 17:53:28 ?
Uosat F 01 Sep 17:50:33 17:52:40 13° 266° (W) 17:54:48 435.120 FM
Sapphire 01 Sep 18:02:35 18:04:50 13° 308° (NW) 18:07:06 437.095 MHz 1200 baud AX-25 AFSK
RS-15 01 Sep 18:15:49 18:26:25 51° 251° (WSW) 18:37:31 29.354 - 29.394 USB, Beacon 29.352 USB
JAS-2 01 Sep 18:17:17 18:23:41 82° 257° (WSW) 18:29:20 435.800 - 435.900 CW/SSB, 435.910 FM
AO-7 01 Sep 18:26:51 18:30:16 13° 266° (W) 18:33:41 29.400 - 29.500 MHz
SO-67 01 Sep 18:39:43 18:42:17 20° 73° (ENE) 18:44:52 435.3500 MHz FM
Hamsat 01 Sep 19:12:25 19:14:52 15° 266° (W) 19:17:21 145.90 MHz
STRAND 1 01 Sep 19:30:19 19:35:25 73° 102° (ESE) 19:40:30 ?
HO-68 01 Sep 19:47:42 19:52:29 20° 63° (ENE) 19:57:15 435.675 MHz FM
SO-67 01 Sep 20:13:12 20:15:14 15° 265° (W) 20:17:15 435.3500 MHz FM
UKube-1 01 Sep 21:06:54 21:10:51 35° 73° (ENE) 21:14:48 145.840 MHz, 145.915 MHz
Oscar 11 01 Sep 21:11:16 21:14:42 23° 71° (ENE) 21:18:09 145.825 FM, Beacon 2401.500 USB
STRAND 1 01 Sep 21:13:38 21:13:56 10° 296° (WNW) 21:14:13 ?
HO-68 01 Sep 21:32:27 21:39:30 65° 257° (WSW) 21:46:36 435.675 MHz FM
Saudisat 1A 01 Sep 21:40:29 21:44:50 69° 116° (ESE) 21:49:13 436.775 MHz
FUNcube-1 01 Sep 21:43:30 21:46:27 19° 70° (ENE) 21:49:27 145.950 - 145.970 MHz USB
AO-40 01 Sep 21:50:31 04:12:56 52° 158° (SSE) 05:46:58 Beacon 2401.320
MaSat-1 01 Sep 22:11:22 22:14:52 24° 60° (ENE) 22:17:58 437.345 MHz
KITSAT 1 01 Sep 22:22:30 22:30:13 51° 110° (ESE) 22:37:57 435.175 FM
UKube-1 01 Sep 22:44:46 22:47:06 14° 265° (W) 22:49:26 145.840 MHz, 145.915 MHz
Oscar 11 01 Sep 22:47:25 22:50:45 22° 264° (W) 22:54:07 145.825 FM, Beacon 2401.500 USB
FUNcube-1 01 Sep 23:19:15 23:22:39 24° 263° (W) 23:26:07 145.950 - 145.970 MHz USB
Saudisat 1A 01 Sep 23:24:25 23:24:50 10° 311° (NW) 23:25:16 436.775 MHz
MaSat-1 01 Sep 23:48:53 23:51:32 17° 259° (W) 23:53:57 437.345 MHz
KITSAT 1 02 Sep 00:18:53 00:25:47 30° 306° (NW) 00:32:44 435.175 FM
Sapphire 02 Sep 01:10:29 01:14:14 19° 55° (NE) 01:17:58 437.095 MHz 1200 baud AX-25 AFSK
PCSat 02 Sep 01:38:46 01:43:45 36° 60° (ENE) 01:48:42 145.825 MHz
Oscar 19 02 Sep 01:42:47 01:47:21 31° 98° (E) 01:51:52 437.125 CW, 437.150 USB
AO-Echo 02 Sep 01:52:41 01:55:27 15° 95° (E) 01:58:13 ?
Oscar 16 02 Sep 02:17:34 02:22:47 78° 102° (ESE) 02:27:57 437.025 USB, Beacon 2401.1428
SO-50 02 Sep 02:19:56 02:23:59 36° 112° (ESE) 02:28:07 436.795 FM
ITAMSAT 1 02 Sep 02:20:32 02:25:04 30° 98° (E) 02:29:35 435.822 SSB
Uribyol 2 02 Sep 02:29:35 02:34:29 41° 99° (E) 02:39:21 436.500 FM
JAS-1B 02 Sep 02:35:57 02:41:44 39° 98° (E) 02:47:00 435.800 - 435.900 CW/SSB
TMSAT-1 02 Sep 02:43:33 02:46:33 15° 94° (E) 02:49:32 436.925 FM
AO-27 02 Sep 02:49:43 02:54:53 65° 102° (ESE) 03:00:01 436.795 MHz FM
Sapphire 02 Sep 02:52:40 02:57:51 48° 250° (WSW) 03:03:01 437.095 MHz 1200 baud AX-25 AFSK
OPAL 02 Sep 03:17:17 03:19:13 12° 63° (ENE) 03:21:09 ?
Oscar 19 02 Sep 03:22:23 03:26:28 24° 291° (WNW) 03:30:31 437.125 CW, 437.150 USB
PCSat 02 Sep 03:22:45 03:26:52 23° 254° (WSW) 03:30:59 145.825 MHz
AO-Echo 02 Sep 03:29:57 03:34:17 38° 287° (WNW) 03:38:41 ?
Gurwin Techsat 1B 02 Sep 03:31:26 03:36:45 73° 102° (ESE) 03:42:01 435.225 FM
ITAMSAT 1 02 Sep 04:00:14 04:04:21 24° 291° (WNW) 04:08:28 435.822 SSB
SO-50 02 Sep 04:01:36 04:04:38 18° 307° (NW) 04:07:43 436.795 FM
UOSAT-12 02 Sep 04:05:50 04:09:57 34° 112° (ESE) 04:14:09 437.025 FM, 437.400 FM
Uribyol 2 02 Sep 04:10:05 04:13:35 19° 292° (WNW) 04:17:05 436.500 FM
TMSAT-1 02 Sep 04:21:33 04:26:38 49° 287° (WNW) 04:31:42 436.925 FM
Uosat F 02 Sep 04:22:52 04:27:01 26° 97° (E) 04:31:09 435.120 FM
JAS-1B 02 Sep 04:27:24 04:32:00 22° 296° (WNW) 04:36:16 435.800 - 435.900 CW/SSB
AO-27 02 Sep 04:31:58 04:33:47 12° 295° (WNW) 04:35:36 436.795 MHz FM
AO-7 02 Sep 04:36:53 04:44:44 45° 102° (ESE) 04:52:32 29.400 - 29.500 MHz
OPAL 02 Sep 04:52:29 04:57:28 63° 257° (WSW) 05:02:33 ?
Gurwin Techsat 1B 02 Sep 05:14:49 05:16:01 11° 296° (WNW) 05:17:13 435.225 FM
JAS-2 02 Sep 05:33:48 05:36:43 14° 96° (E) 05:39:46 435.800 - 435.900 CW/SSB, 435.910 FM
UOSAT-12 02 Sep 05:46:45 05:50:09 20° 306° (NW) 05:53:35 437.025 FM, 437.400 FM
Uosat F 02 Sep 06:01:33 06:05:40 26° 290° (WNW) 06:09:47 435.120 FM
Saudisat 1A 02 Sep 06:14:41 06:16:26 12° 51° (NE) 06:18:10 436.775 MHz
RS-15 02 Sep 06:20:05 06:30:23 44° 108° (ESE) 06:40:25 29.354 - 29.394 USB, Beacon 29.352 USB
AO-7 02 Sep 06:30:06 06:37:11 33° 296° (WNW) 06:44:16 29.400 - 29.500 MHz
STRAND 1 02 Sep 06:40:34 06:45:33 57° 74° (ENE) 06:50:32 ?
Hamsat 02 Sep 07:01:58 07:06:10 52° 284° (WNW) 07:10:19 145.90 MHz
JAS-2 02 Sep 07:16:39 07:21:54 54° 285° (WNW) 07:27:41 435.800 - 435.900 CW/SSB, 435.910 FM
SO-67 02 Sep 07:40:57 07:44:20 53° 100° (E) 07:47:42 435.3500 MHz FM
Saudisat 1A 02 Sep 07:52:00 07:56:20 56° 245° (WSW) 08:00:37 436.775 MHz
KITSAT 1 02 Sep 08:17:02 08:24:52 52° 60° (ENE) 08:32:39 435.175 FM
STRAND 1 02 Sep 08:23:12 08:24:59 12° 267° (W) 08:26:47 ?
RS-15 02 Sep 08:32:09 08:42:32 44° 305° (NW) 08:52:49 29.354 - 29.394 USB, Beacon 29.352 USB
ISS 02 Sep 08:44:04 08:47:21 67° 133° (SE) 08:50:39 145.800 FM
PANSAT 02 Sep 08:48:51 08:50:59 14° 155° (SSE) 08:53:07 not established
HO-68 02 Sep 09:06:51 09:13:14 34° 99° (E) 09:19:35 435.675 MHz FM
KITSAT 1 02 Sep 10:13:18 10:19:46 28° 255° (WSW) 10:26:15 435.175 FM
ISS 02 Sep 10:23:21 10:24:23 11° 327° (NNW) 10:25:26 145.800 FM
PANSAT 02 Sep 10:27:06 10:30:45 40° 166° (SSE) 10:34:24 not established
UKube-1 02 Sep 10:36:33 10:40:46 52° 285° (WNW) 10:44:58 145.840 MHz, 145.915 MHz
Oscar 11 02 Sep 10:39:38 10:44:00 77° 283° (WNW) 10:48:20 145.825 FM, Beacon 2401.500 USB
HO-68 02 Sep 10:54:26 11:00:48 36° 292° (WNW) 11:07:10 435.675 MHz FM
RS-15 02 Sep 10:57:51 10:58:50 10° 334° (NNW) 10:59:49 29.354 - 29.394 USB, Beacon 29.352 USB
FUNcube-1 02 Sep 11:12:49 11:17:25 87° 282° (WNW) 11:22:02 145.950 - 145.970 MHz USB
MaSat-1 02 Sep 11:52:12 11:56:30 36° 105° (ESE) 12:01:08 437.345 MHz
PANSAT 02 Sep 12:06:56 12:10:46 67° 178° (S) 12:14:37 not established
Oscar 10/S400 02 Sep 12:18:14 03:35:17 53° 231° (SW) 13:09:58 145.825 - 145.975 CW/USB, Beacon 145.810 USB
SO-50 02 Sep 12:36:41 12:41:31 89° 63° (ENE) 12:46:23 436.795 FM
Oscar 19 02 Sep 12:54:24 12:58:35 26° 70° (ENE) 13:02:47 437.125 CW, 437.150 USB
AO-Echo 02 Sep 13:01:26 13:03:24 12° 67° (ENE) 13:05:21 ?
JAS-1B 02 Sep 13:11:49 13:19:48 30° 67° (ENE) 13:27:08 435.800 - 435.900 CW/SSB
Oscar 16 02 Sep 13:28:46 13:33:50 62° 75° (ENE) 13:38:56 437.025 USB, Beacon 2401.1428
MaSat-1 02 Sep 13:29:54 13:33:35 21° 301° (WNW) 13:37:26 437.345 MHz
ITAMSAT 1 02 Sep 13:33:20 13:37:34 26° 70° (ENE) 13:41:48 435.822 SSB
Uribyol 2 02 Sep 13:42:05 13:46:42 34° 71° (ENE) 13:51:19 436.500 FM
PANSAT 02 Sep 13:47:05 13:50:50 49° 191° (S) 13:54:34 not established
TMSAT-1 02 Sep 13:59:30 14:02:13 14° 66° (ENE) 14:04:55 436.925 FM
AO-27 02 Sep 14:02:14 14:07:16 54° 74° (ENE) 14:12:18 436.795 MHz FM
UOSAT-12 02 Sep 14:20:20 14:25:03 77° 62° (ENE) 14:29:39 437.025 FM, 437.400 FM
Oscar 19 02 Sep 14:33:20 14:37:45 29° 263° (W) 14:42:11 437.125 CW, 437.150 USB
AO-Echo 02 Sep 14:36:43 14:41:41 57° 259° (W) 14:46:31 ?
Gurwin Techsat 1B 02 Sep 14:46:46 14:52:00 65° 75° (ENE) 14:57:15 435.225 FM
JAS-1B 02 Sep 15:00:03 15:09:44 60° 258° (WSW) 15:18:39 435.800 - 435.900 CW/SSB
Oscar 16 02 Sep 15:12:08 15:13:29 11° 267° (W) 15:14:50 437.025 USB, Beacon 2401.1428
ITAMSAT 1 02 Sep 15:12:32 15:16:54 28° 262° (W) 15:21:17 435.822 SSB
Uribyol 2 02 Sep 15:22:22 15:26:10 21° 264° (W) 15:29:58 436.500 FM
